When you browse on this site, cookies collect data to enhance your experience and personalize the content and advertising you see.
Visit our Privacy Policy to learn more. By continuing to use the site, you agree to this use of cookies and data.
  • Em Portugal
  • Lista de países
  • Para 7 dias
  • Temperatura da água
  • Mapas de satélite
  • Mapa do tempo
  • Widgets de tempo
  • user-avatar
    Iniciar Sessão

    Previsão horária em Gadivlya

    Hoje, 21 Abril, Domingo

    Tempo Temperatura Precipitação Vento Pressão Humidade
    00:00 +7°C° 0 mm 1 m/s 752 mmHg 76%
    01:00 +7°C° 0 mm 1 m/s 752 mmHg 79%
    02:00 +6°C° 0 mm 2 m/s 752 mmHg 83%
    03:00 +5°C° 0 mm 2 m/s 752 mmHg 84%
    04:00 +5°C° 0 mm 2 m/s 751 mmHg 85%
    05:00 +5°C° 0 mm 2 m/s 751 mmHg 86%
    06:00 +5°C° 0 mm 3 m/s 751 mmHg 81%
    07:00 +7°C° 0 mm 4 m/s 751 mmHg 75%
    08:00 +8°C° 0 mm 5 m/s 752 mmHg 69%
    09:00 +9°C° 0 mm 5 m/s 752 mmHg 65%
    10:00 +10°C° 0 mm 5 m/s 752 mmHg 61%
    11:00 +12°C° 0 mm 5 m/s 752 mmHg 57%
    12:00 +14°C° 0.3 mm 5 m/s 752 mmHg 52%
    13:00 +15°C° 0.3 mm 5 m/s 752 mmHg 47%
    14:00 +15°C° 0 mm 4 m/s 752 mmHg 45%
    15:00 +15°C° 0 mm 4 m/s 752 mmHg 43%
    16:00 +15°C° 0 mm 4 m/s 752 mmHg 41%
    17:00 +15°C° 0 mm 4 m/s 752 mmHg 39%
    18:00 +14°C° 0 mm 4 m/s 753 mmHg 47%
    19:00 +12°C° 0 mm 3 m/s 753 mmHg 54%
    20:00 +10°C° 0 mm 3 m/s 753 mmHg 61%
    21:00 +9°C° 0 mm 3 m/s 754 mmHg 63%
    22:00 +9°C° 0 mm 3 m/s 754 mmHg 66%
    23:00 +8°C° 0 mm 2 m/s 754 mmHg 68%

    Amanhã, 22 Abril, Segunda-feira

    Tempo Temperatura Precipitação Vento Pressão Humidade
    00:00 +7°C° 0 mm 2 m/s 755 mmHg 69%
    01:00 +7°C° 0 mm 2 m/s 755 mmHg 71%
    02:00 +6°C° 0 mm 2 m/s 755 mmHg 72%
    03:00 +6°C° 0 mm 2 m/s 756 mmHg 73%
    04:00 +6°C° 0 mm 2 m/s 756 mmHg 74%
    05:00 +5°C° 0 mm 2 m/s 756 mmHg 74%
    06:00 +7°C° 0 mm 2 m/s 757 mmHg 68%
    07:00 +9°C° 0 mm 2 m/s 757 mmHg 61%
    08:00 +12°C° 0 mm 2 m/s 757 mmHg 55%
    09:00 +14°C° 0 mm 2 m/s 758 mmHg 47%
    10:00 +14°C° 0 mm 3 m/s 758 mmHg 39%
    11:00 +17°C° 0 mm 3 m/s 758 mmHg 32%
    12:00 +17°C° 0 mm 3 m/s 758 mmHg 31%
    13:00 +17°C° 0 mm 3 m/s 758 mmHg 30%
    14:00 +18°C° 0 mm 3 m/s 758 mmHg 29%
    15:00 +17°C° 0 mm 3 m/s 758 mmHg 31%
    16:00 +17°C° 0 mm 3 m/s 758 mmHg 33%
    17:00 +17°C° 0 mm 3 m/s 757 mmHg 35%
    18:00 +15°C° 0 mm 2 m/s 758 mmHg 40%
    19:00 +14°C° 0 mm 2 m/s 758 mmHg 45%
    20:00 +12°C° 0 mm 2 m/s 758 mmHg 50%
    21:00 +11°C° 0 mm 1 m/s 758 mmHg 52%
    22:00 +11°C° 0 mm 1 m/s 758 mmHg 55%
    23:00 +10°C° 0 mm 1 m/s 759 mmHg 57%

    Depois de amanhã, 23 Abril, Terça-feira

    Tempo Temperatura Precipitação Vento Pressão Humidade
    00:00 +9°C° 0 mm 1 m/s 759 mmHg 58%
    01:00 +9°C° 0 mm 1 m/s 759 mmHg 59%
    02:00 +8°C° 0 mm 1 m/s 759 mmHg 60%
    03:00 +8°C° 0 mm 1 m/s 759 mmHg 61%
    04:00 +7°C° 0 mm 1 m/s 759 mmHg 61%
    05:00 +7°C° 0 mm 1 m/s 759 mmHg 61%
    06:00 +9°C° 0 mm 1 m/s 760 mmHg 56%
    07:00 +11°C° 0 mm 1 m/s 760 mmHg 50%
    08:00 +13°C° 0 mm 1 m/s 760 mmHg 45%
    09:00 +15°C° 0 mm 1 m/s 760 mmHg 40%
    10:00 +16°C° 0 mm 2 m/s 760 mmHg 36%
    11:00 +18°C° 0 mm 2 m/s 760 mmHg 31%
    12:00 +18°C° 0 mm 2 m/s 760 mmHg 31%
    13:00 +19°C° 0 mm 2 m/s 759 mmHg 30%
    14:00 +19°C° 0 mm 2 m/s 759 mmHg 30%
    15:00 +19°C° 0 mm 3 m/s 759 mmHg 32%
    16:00 +18°C° 0 mm 3 m/s 758 mmHg 35%
    17:00 +18°C° 0 mm 3 m/s 758 mmHg 37%
    18:00 +16°C° 0 mm 3 m/s 758 mmHg 44%
    19:00 +14°C° 0 mm 2 m/s 758 mmHg 50%
    20:00 +12°C° 0 mm 2 m/s 758 mmHg 57%
    21:00 +12°C° 0 mm 2 m/s 758 mmHg 59%
    22:00 +10°C° 0 mm 2 m/s 758 mmHg 60%
    23:00 +9°C° 0 mm 2 m/s 758 mmHg 62%

    24 Abril, Quarta-feira

    Tempo Temperatura Precipitação Vento Pressão Humidade
    00:00 +9°C° 0 mm 2 m/s 758 mmHg 62%
    01:00 +8°C° 0 mm 2 m/s 759 mmHg 62%
    02:00 +8°C° 0 mm 2 m/s 759 mmHg 62%
    03:00 +8°C° 0 mm 1 m/s 759 mmHg 62%
    04:00 +8°C° 0 mm 1 m/s 759 mmHg 63%
    05:00 +8°C° 0 mm 1 m/s 759 mmHg 64%
    06:00 +10°C° 0 mm 1 m/s 759 mmHg 59%
    07:00 +12°C° 0 mm 2 m/s 759 mmHg 54%
    08:00 +14°C° 0 mm 2 m/s 759 mmHg 49%
    09:00 +15°C° 0 mm 2 m/s 759 mmHg 44%
    10:00 +17°C° 0 mm 3 m/s 759 mmHg 39%
    11:00 +18°C° 0 mm 4 m/s 759 mmHg 34%
    12:00 +19°C° 0 mm 4 m/s 759 mmHg 34%
    13:00 +19°C° 0 mm 4 m/s 758 mmHg 34%
    14:00 +20°C° 0 mm 4 m/s 758 mmHg 34%
    15:00 +20°C° 0 mm 4 m/s 758 mmHg 35%
    16:00 +19°C° 0 mm 4 m/s 758 mmHg 36%
    17:00 +19°C° 0 mm 4 m/s 757 mmHg 38%
    18:00 +17°C° 0 mm 3 m/s 757 mmHg 45%
    19:00 +14°C° 0 mm 3 m/s 757 mmHg 51%
    20:00 +13°C° 0 mm 2 m/s 757 mmHg 58%
    21:00 +13°C° 0 mm 2 m/s 757 mmHg 60%
    22:00 +12°C° 0 mm 2 m/s 758 mmHg 61%
    23:00 +10°C° 0 mm 2 m/s 758 mmHg 63%

    25 Abril, Quinta-feira

    Tempo Temperatura Precipitação Vento Pressão Humidade
    00:00 +10°C° 0 mm 2 m/s 758 mmHg 65%
    01:00 +9°C° 0 mm 2 m/s 758 mmHg 66%
    02:00 +9°C° 0 mm 2 m/s 758 mmHg 68%
    03:00 +8°C° 0 mm 2 m/s 758 mmHg 69%
    04:00 +8°C° 0 mm 2 m/s 758 mmHg 70%
    05:00 +8°C° 0 mm 2 m/s 758 mmHg 72%
    06:00 +10°C° 0 mm 3 m/s 758 mmHg 66%
    07:00 +12°C° 0 mm 3 m/s 758 mmHg 59%
    08:00 +14°C° 0 mm 3 m/s 758 mmHg 53%
    09:00 +15°C° 0 mm 4 m/s 758 mmHg 48%
    10:00 +18°C° 0 mm 4 m/s 758 mmHg 43%
    11:00 +19°C° 0 mm 5 m/s 757 mmHg 37%
    12:00 +20°C° 0 mm 5 m/s 757 mmHg 36%
    13:00 +21°C° 0 mm 5 m/s 757 mmHg 35%
    14:00 +21°C° 0 mm 5 m/s 756 mmHg 34%
    15:00 +21°C° 0 mm 4 m/s 756 mmHg 36%
    16:00 +21°C° 0 mm 4 m/s 755 mmHg 37%
    17:00 +20°C° 0 mm 4 m/s 755 mmHg 38%
    18:00 +18°C° 0 mm 3 m/s 755 mmHg 45%
    19:00 +16°C° 0 mm 3 m/s 755 mmHg 52%
    20:00 +14°C° 0 mm 3 m/s 754 mmHg 58%
    21:00 +13°C° 0 mm 3 m/s 754 mmHg 60%
    22:00 +12°C° 0 mm 3 m/s 754 mmHg 61%
    23:00 +12°C° 0 mm 3 m/s 754 mmHg 62%

    26 Abril, Sexta-feira

    Tempo Temperatura Precipitação Vento Pressão Humidade
    00:00 +11°C° 0 mm 3 m/s 754 mmHg 65%
    01:00 +11°C° 0 mm 3 m/s 753 mmHg 67%
    02:00 +10°C° 0 mm 3 m/s 753 mmHg 69%
    03:00 +10°C° 0 mm 3 m/s 753 mmHg 70%
    04:00 +10°C° 0 mm 3 m/s 753 mmHg 72%
    05:00 +10°C° 0 mm 3 m/s 752 mmHg 73%
    06:00 +11°C° 0 mm 4 m/s 752 mmHg 67%
    07:00 +13°C° 0 mm 4 m/s 752 mmHg 60%
    08:00 +15°C° 0 mm 5 m/s 752 mmHg 54%
    09:00 +16°C° 0 mm 5 m/s 751 mmHg 49%
    10:00 +19°C° 0 mm 5 m/s 751 mmHg 43%
    11:00 +20°C° 0 mm 5 m/s 751 mmHg 38%
    12:00 +21°C° 0 mm 5 m/s 750 mmHg 37%
    13:00 +22°C° 0 mm 5 m/s 750 mmHg 36%
    14:00 +23°C° 0 mm 5 m/s 750 mmHg 34%
    15:00 +22°C° 0 mm 5 m/s 749 mmHg 36%
    16:00 +22°C° 0 mm 4 m/s 749 mmHg 38%
    17:00 +22°C° 0 mm 4 m/s 749 mmHg 40%
    18:00 +20°C° 0 mm 3 m/s 749 mmHg 49%
    19:00 +18°C° 0 mm 2 m/s 748 mmHg 59%
    20:00 +15°C° 0 mm 2 m/s 748 mmHg 68%
    21:00 +15°C° 0.2 mm 2 m/s 748 mmHg 72%
    22:00 +14°C° 0.2 mm 2 m/s 748 mmHg 76%
    23:00 +14°C° 0.2 mm 2 m/s 748 mmHg 79%
    Mostrar mais